OM6ACB-6 Weather Reports


Display with metric or nautical units.
time (UTC)temp
F
wind
direction
speed
MPH
gust
MPH
rain 1hr
in
rain 24hr
in
rain mn
in
humidity
%
barometer
mb
20260503230347 38 0 0.0 0.0 0.00 0.00 0.00 31 1019.6
20260503225347 39 0 0.0 0.0 0.00 0.00 0.00 31 1019.7
20260503224347 39 0 0.0 0.0 0.00 0.00 0.00 31 1019.7
20260503223347 40 0 0.0 0.0 0.00 0.00 0.00 30 1019.8
20260503222347 40 0 0.0 0.0 0.00 0.00 0.00 30 1019.8
20260503221346 40 0 0.0 0.0 0.00 0.00 0.00 30 1019.8
20260503220346 39 0 0.0 0.0 0.00 0.00 0.00 31 1019.8
20260503215345 42 0 0.0 0.0 0.00 0.00 0.00 30 1020.0
20260503214345 44 0 0.0 0.0 0.00 0.00 0.00 29 1020.1
20260503213345 44 0 0.0 0.0 0.00 0.00 0.00 29 1020.2
20260503212345 45 0 0.0 0.0 0.00 0.00 0.00 29 1020.1
20260503211344 45 0 0.0 0.0 0.00 0.00 0.00 29 1020.2
20260503210344 45 0 0.0 0.0 0.00 0.00 0.00 29 1020.2
20260503205344 45 0 0.0 0.0 0.00 0.00 0.00 29 1020.1
20260503204343 45 0 0.0 0.0 0.00 0.00 0.00 29 1020.2
20260503203343 45 0 0.0 0.0 0.00 0.00 0.00 29 1020.2
20260503202343 45 0 0.0 0.0 0.00 0.00 0.00 29 1020.1
20260503201343 45 0 0.0 0.0 0.00 0.00 0.00 29 1020.0
20260503200342 44 0 0.0 0.0 0.00 0.00 0.00 29 1020.0
20260503195342 44 0 0.0 0.0 0.00 0.00 0.00 29 1019.9
20260503194342 45 0 0.0 0.0 0.00 0.00 0.00 29 1020.0
20260503193341 46 0 0.0 0.0 0.00 0.00 0.00 29 1020.0
20260503192341 47 0 0.0 0.0 0.00 0.00 0.00 28 1020.1
20260503191341 48 0 0.0 0.0 0.00 0.00 0.00 28 1020.0
20260503190340 47 0 0.0 0.0 0.00 0.00 0.00 28 1019.9
20260503185340 48 0 0.0 0.0 0.00 0.00 0.00 28 1019.8
20260503184340 49 0 0.0 0.0 0.00 0.00 0.00 28 1019.8
20260503183340 52 0 0.0 0.0 0.00 0.00 0.00 27 1020.0
20260503182340 54 0 0.0 0.0 0.00 0.00 0.00 26 1020.2
20260503181339 58 325 0.0 1.0 0.00 0.00 0.00 25 1020.3
20260503180339 58 314 0.0 1.0 0.00 0.00 0.00 25 1020.2
20260503175338 59 314 0.0 0.0 0.00 0.00 0.00 25 1020.3
20260503174338 62 309 1.0 4.0 0.00 0.00 0.00 24 1020.6
20260503173338 64 272 1.0 3.0 0.00 0.00 0.00 24 1020.6
20260503172338 64 279 2.0 4.0 0.00 0.00 0.00 24 1020.7
20260503171337 65 273 1.0 4.0 0.00 0.00 0.00 23 1020.6
20260503170337 66 304 2.0 4.0 0.00 0.00 0.00 23 1020.8
20260503150333 75 248 5.0 6.0 0.00 0.00 0.00 20 1021.9
20260503131330 75 310 4.0 8.0 0.00 0.00 0.00 21 1023.0
20260503130330 75 311 4.0 8.0 0.00 0.00 0.00 20 1023.1
20260503110326 74 276 6.0 7.0 0.00 0.00 0.00 21 1024.1
20260503090323 70 324 3.0 5.0 0.00 0.00 0.00 22 1024.9
20260503081322 67 305 2.0 4.0 0.00 0.00 0.00 23 1024.9
20260503080321 68 239 2.0 4.0 0.00 0.00 0.00 23 1025.1
20260503072320 63 314 2.0 2.0 0.00 0.00 0.00 24 1024.6
20260503071320 61 315 2.0 2.0 0.00 0.00 0.00 25 1024.9
20260503070319 63 181 1.0 1.0 0.00 0.00 0.00 24 1024.7
20260503060318 58 136 0.0 0.0 0.00 0.00 0.00 25 1024.4
20260503054317 54 0 0.0 0.0 0.00 0.00 0.00 26 1024.1
20260503053317 54 0 0.0 0.0 0.00 0.00 0.00 27 1024.1
20260503052317 50 0 0.0 0.0 0.00 0.00 0.00 28 1023.8
20260503051316 50 0 0.0 0.0 0.00 0.00 0.00 28 1023.8
20260503050316 48 0 0.0 0.0 0.00 0.00 0.00 28 1023.4
20260503045316 46 0 0.0 0.0 0.00 0.00 0.00 29 1023.4
20260503044315 47 90 0.0 0.0 0.00 0.00 0.00 28 1023.4
20260503043315 42 0 0.0 0.0 0.00 0.00 0.00 30 1022.9
20260503042315 42 0 0.0 0.0 0.00 0.00 0.00 30 1022.8
20260503041314 42 0 0.0 0.0 0.00 0.00 0.00 30 1022.7
20260503040314 37 0 0.0 0.0 0.00 0.00 0.00 31 1022.3
20260503035314 36 0 0.0 0.0 0.00 0.00 0.00 39 1022.1
20260503034314 35 0 0.0 0.0 0.00 0.00 0.00 47 1021.9
20260503033313 35 0 0.0 0.0 0.00 0.00 0.00 47 1021.8
20260503032313 35 0 0.0 0.0 0.00 0.00 0.00 47 1021.8
20260503031313 35 0 0.0 0.0 0.00 0.00 0.00 47 1021.7
20260503030312 35 0 0.0 0.0 0.00 0.00 0.00 47 1021.7
20260503025312 35 0 0.0 0.0 0.00 0.00 0.00 47 1021.7
20260503024312 36 0 0.0 0.0 0.00 0.00 0.00 47 1021.8
20260503023312 36 0 0.0 0.0 0.00 0.00 0.00 47 1021.8
20260503022311 36 0 0.0 0.0 0.00 0.00 0.00 39 1021.9
20260503021311 36 0 0.0 0.0 0.00 0.00 0.00 39 1021.9
20260503020311 36 0 0.0 0.0 0.00 0.00 0.00 39 1021.9
20260503015310 36 0 0.0 0.0 0.00 0.00 0.00 39 1021.9
20260503014310 36 0 0.0 0.0 0.00 0.00 0.00 39 1021.8
20260503013310 36 0 0.0 0.0 0.00 0.00 0.00 39 1021.8
20260503012310 36 0 0.0 0.0 0.00 0.00 0.00 39 1021.7
20260503011309 39 0 0.0 0.0 0.00 0.00 0.00 32 1021.9
20260503010309 39 0 0.0 0.0 0.00 0.00 0.00 32 1021.9
20260503005309 39 0 0.0 0.0 0.00 0.00 0.00 32 1021.8
20260503004308 39 0 0.0 0.0 0.00 0.00 0.00 32 1021.8
20260503003308 39 0 0.0 0.0 0.00 0.00 0.00 32 1021.8
20260503002308 39 0 0.0 0.0 0.00 0.00 0.00 32 1021.9
20260503001307 39 0 0.0 0.0 0.00 0.00 0.00 32 1021.8
20260503000307 40 0 0.0 0.0 0.00 0.00 0.00 30 1022.0
20260502235307 41 0 0.0 0.0 0.00 0.00 0.00 30 1022.2
20260502234307 41 0 0.0 0.0 0.00 0.00 0.00 30 1022.2
20260502233306 41 0 0.0 0.0 0.00 0.00 0.00 30 1022.1
20260502232306 41 270 0.0 1.0 0.00 0.00 0.00 30 1022.1
20260502231306 41 270 0.0 1.0 0.00 0.00 0.00 30 1022.1